Wetbulb
66.50 67.25 72.74 74.05 73.76 72.95 72.09 71.19 70.48 69.34 67.97 67.22 66.65 65.68 65.90 65.37 65.28 65.05 65.24 65.03 65.17 64.66 65.39 66.62 67.15 69.33 69.12 68.78 68.24 67.08 65.67 65.26 65.02 64.70 64.22 65.39 66.53 67.41 66.45 66.73 65.52 65.13 65.97
67.26 67.57 73.08 74.30 73.03 72.97 72.39 71.12 70.47 69.47 67.74 66.95 66.46 66.12 65.16 66.69 65.58 65.08 65.63 66.06 65.31 64.20 63.83 65.10 66.10 67.66 67.37 65.92 65.97 65.82 65.17 64.46 64.22 64.11 64.53 65.27 65.42 66.78 65.24 65.85 67.28 66.65 67.51
66.98 67.78 72.02 74.11 73.71 72.94 71.99 71.25 69.76 68.87 67.50 66.85 66.35 65.57 66.56 67.16 66.63 66.47 66.25 65.68 65.73 64.94 63.87 64.39 65.54 66.06 66.24 65.64 67.05 66.30 65.70 64.02 63.36 63.79 64.76 65.04 65.58 66.06 65.00 66.12 67.69 68.54 68.68
67.22 68.33 71.49 74.00 73.32 72.85 72.16 71.36 69.95 68.75 67.33 66.36 66.35 66.54 67.16 68.44 67.01 65.31 64.59 64.22 65.47 64.12 63.47 63.77 65.31 65.25 65.70 65.34 67.58 65.81 64.48 63.34 63.11 64.00 64.09 64.09 65.20 65.36 65.43 66.17 67.07 67.18 67.28
67.27 68.69 70.94 73.32 73.28 72.89 72.33 71.34 69.88 68.68 68.05 66.79 66.33 67.21 68.70 68.36 67.28 66.84 65.36 64.62 64.20 64.17 63.14 63.57 64.75 64.07 64.97 64.98 65.43 65.64 63.79 62.57 62.69 62.57 62.44 64.52 65.55 64.57 66.72 65.64 66.20 66.94 65.72
67.72 69.18 70.83 72.95 73.06 73.17 71.89 70.73 69.82 68.62 67.78 67.27 66.58 67.15 68.59 69.30 68.06 66.92 65.43 64.19 63.72 63.85 63.95 63.81 64.00 64.97 64.64 64.62 65.03 65.13 64.68 64.00 62.14 62.35 61.76 64.03 65.27 64.92 66.17 65.64 65.46 65.87 65.93
67.72 69.39 70.19 72.09 72.66 72.85 71.54 70.43 69.69 68.62 67.88 66.93 67.26 68.04 68.21 69.59 68.51 66.73 65.55 64.37 64.00 64.11 64.00 64.01 63.99 63.81 64.76 64.81 64.81 64.83 64.69 65.02 63.34 62.30 61.13 62.67 64.66 66.00 66.51 65.58 65.05 64.94 64.74
67.62 68.77 69.54 71.06 72.77 72.56 71.74 70.73 69.92 68.70 68.02 67.21 67.28 67.42 67.61 67.58 67.61 66.51 65.92 65.04 64.82 64.62 64.73 64.53 64.83 64.54 64.02 64.05 64.62 64.44 64.88 63.81 63.04 63.24 61.39 60.57 63.24 65.66 65.47 66.22 65.50 64.97 64.64
67.61 68.32 69.18 70.22 71.84 71.66 71.64 71.14 70.63 69.41 68.47 68.33 68.06 67.87 67.76 67.17 65.85 65.62 65.78 65.95 66.01 65.68 65.06 65.59 66.30 65.94 65.59 64.98 64.59 64.35 65.08 64.90 63.39 63.87 62.60 60.70 60.15 64.71 66.20 66.42 66.44 65.97 65.52
66.64 67.81 68.65 69.79 71.47 71.35 70.94 70.37 70.22 69.85 69.34 69.10 68.77 68.08 67.05 66.28 66.12 66.32 67.00 66.20 66.23 65.91 65.82 66.46 66.38 66.61 66.24 65.92 65.21 65.12 64.85 64.79 63.50 63.56 63.26 62.60 61.26 62.99 66.09 66.41 66.78 66.21 65.90
64.72 66.48 68.13 69.09 70.58 70.68 70.28 69.42 69.67 69.18 68.75 68.16 67.69 66.77 66.03 66.25 65.38 64.55 64.16 64.58 65.29 65.89 65.77 65.70 66.30 66.60 66.57 65.85 64.81 64.35 63.59 61.84 61.88 62.27 62.98 62.47 63.31 63.69 64.17 66.07 66.30 66.76 66.42
62.94 65.27 67.04 68.14 69.27 69.95 69.33 69.43 69.18 68.78 68.57 67.78 67.05 66.36 65.96 65.50 64.72 63.42 62.58 63.02 64.26 64.87 65.49 65.67 65.61 65.78 65.77 64.94 64.29 62.19 62.48 61.57 60.52 60.50 61.14 62.37 64.26 64.99 64.15 64.41 65.56 66.22 66.55
60.96 64.18 66.16 66.91 68.28 68.79 68.96 68.76 68.12 67.88 67.65 67.10 66.33 65.51 64.52 64.16 63.97 63.54 63.24 63.35 63.37 61.79 63.07 63.21 63.47 63.66 63.78 63.75 63.39 62.79 62.01 61.37 60.31 59.78 59.95 61.11 62.89 64.42 64.83 64.00 64.38 65.18 65.83
60.03 61.46 64.64 66.70 67.20 67.68 68.09 67.82 67.44 66.55 66.39 65.96 65.43 64.66 63.80 63.50 62.94 62.70 62.52 62.75 62.40 62.66 62.33 62.56 62.27 62.57 62.60 62.70 62.80 62.20 61.71 61.09 60.28 59.47 59.42 58.82 60.58 61.88 62.89 64.07 64.00 63.81 64.88
59.29 60.71 61.59 64.77 66.30 66.97 66.64 66.77 66.30 65.71 65.55 65.63 65.16 64.58 63.71 63.03 62.52 62.83 62.66 62.38 62.27 62.20 61.92 61.86 61.85 61.60 61.56 61.71 61.86 61.45 60.91 60.75 60.43 59.79 59.45 58.01 58.62 60.97 61.87 62.18 63.17 63.76 63.69
59.18 59.65 60.95 61.26 64.52 66.05 66.05 66.05 65.77 65.29 64.96 64.33 64.26 64.08 63.40 62.94 62.35 62.05 62.14 61.94 61.83 61.99 62.04 61.67 61.51 61.38 61.31 61.39 60.90 61.16 60.39 60.60 60.34 60.12 59.81 59.57 58.14 59.64 61.60 63.06 63.12 63.37 64.21
53.80 54.35 55.29 59.02 61.52 63.99 65.14 65.50 65.28 64.79 64.01 63.70 63.41 63.24 62.87 62.78 62.69 62.41 62.09 61.69 61.81 61.83 61.43 61.26 60.97 60.58 60.14 60.40 59.85 60.08 60.19 60.25 60.03 59.80 59.73 59.24 59.20 58.23 59.11 62.28 63.67 64.11 63.93
53.59 54.10 54.96 55.69 60.63 61.73 63.21 63.78 64.00 63.89 63.85 63.66 63.23 62.86 62.36 62.24 62.23 61.96 61.38 61.48 61.95 61.34 60.65 60.26 60.01 59.32 58.80 58.01 57.94 58.68 58.57 59.67 59.81 59.88 59.83 59.73 59.15 58.71 58.97 59.09 61.09 63.23 64.14
53.10 54.14 55.59 56.43 57.60 60.38 60.85 61.84 62.01 61.86 62.21 62.51 62.09 61.77 61.64 61.46 61.43 61.13 61.03 61.14 61.08 60.43 59.97 59.48 59.36 58.84 58.43 58.77 58.33 58.28 59.35 59.08 59.54 59.25 59.29 59.44 59.22 58.71 59.25 59.14 58.25 59.38 61.53
51.97 53.01 55.07 56.60 58.33 60.31 60.88 60.96 61.25 61.31 61.14 61.04 61.12 61.08 60.63 60.50 60.11 59.94 60.14 60.23 60.33 59.94 60.02 59.91 58.83 59.56 58.82 58.66 57.64 57.63 59.66 60.37 60.64 59.90 59.34 59.57 59.72 59.40 59.04 58.70 58.91 58.52 58.04
51.17 51.94 52.22 55.16 57.17 60.53 60.68 60.73 61.17 60.49 59.75 58.05 57.61 57.67 58.02 58.95 59.73 59.13 58.84 58.36 58.84 58.77 58.81 59.15 58.60 57.94 58.30 59.67 56.09 55.92 57.58 59.68 60.22 60.51 60.99 60.34 59.92 59.84 60.02 59.82 59.57 58.94 58.67
49.95 50.89 51.45 51.85 52.93 56.87 60.33 60.64 60.77 58.33 55.89 55.00 54.56 53.97 53.89 52.83 52.68 52.47 52.62 52.78 53.27 53.79 53.77 54.13 55.00 54.25 55.53 57.62 55.72 55.38 53.15 55.52 59.01 59.09 60.44 60.10 60.23 60.70 60.25 60.09 60.03 59.69 59.24
49.26 49.86 50.89 51.42 51.80 52.22 53.82 55.04 54.80 54.55 54.07 53.07 51.90 51.54 51.62 51.84 50.95 50.67 50.73 50.63 50.87 51.45 50.62 51.37 51.76 51.29 49.92 51.84 53.77 53.06 49.84 49.40 51.74 55.23 57.93 58.96 59.53 59.78 59.86 59.96 59.92 60.09 59.99
48.96 50.15 50.94 51.14 51.69 51.73 52.71 52.12 51.39 50.83 49.46 49.83 50.03 50.17 50.07 50.35 49.93 48.99 49.23 49.33 49.42 49.81 49.25 49.64 49.93 49.82 49.13 47.88 50.19 51.68 51.88 51.88 46.91 46.66 51.34 54.23 55.87 56.53 58.07 58.72 59.02 59.57 59.65
49.36 49.38 50.38 50.73 50.48 50.76 50.98 50.95 50.30 48.89 49.05 48.83 48.35 47.80 48.02 48.18 48.59 47.04 47.36 47.68 47.51 47.84 48.29 48.40 47.99 47.98 48.41 47.77 47.92 48.08 48.50 49.29 50.23 47.92 45.60 47.94 51.59 52.85 54.68 56.43 57.73 58.56 59.43
49.12 49.66 50.16 49.80 48.93 49.18 49.17 48.80 48.09 47.28 46.41 45.76 45.41 44.67 44.89 45.18 45.73 44.74 44.76 44.97 45.44 45.19 45.60 45.63 46.36 46.68 46.84 47.04 47.73 47.43 46.86 46.23 46.47 46.58 45.17 45.80 46.38 49.05 51.99 54.01 54.76 56.18 57.66
MSLP
1012.36 1012.42 1012.48 1012.53 1012.90 1013.14 1013.43 1013.87 1014.16 1014.42 1014.54 1014.67 1014.72 1014.80 1014.72 1014.85 1014.99 1015.04 1014.96 1015.06 1015.21 1015.24 1015.21 1015.18 1015.09 1015.04 1015.04 1015.22 1015.37 1015.52 1015.65 1015.79 1015.90 1015.98 1015.92 1015.83 1015.61 1015.39 1015.25 1015.26 1015.35 1015.29 1015.26
1011.75 1012.20 1012.39 1012.50 1012.83 1013.17 1013.50 1013.87 1014.21 1014.44 1014.58 1014.64 1014.60 1014.66 1014.71 1014.77 1015.01 1015.11 1015.11 1015.10 1015.11 1015.14 1015.28 1015.22 1015.10 1015.09 1015.18 1015.12 1015.39 1015.58 1015.73 1015.88 1016.05 1016.10 1016.05 1015.98 1015.82 1015.61 1015.51 1015.43 1015.35 1015.19 1015.21
1011.68 1012.04 1012.27 1012.54 1012.82 1013.19 1013.59 1013.87 1014.25 1014.44 1014.60 1014.63 1014.67 1014.62 1014.65 1014.67 1014.79 1015.03 1015.17 1015.04 1015.14 1015.25 1015.40 1015.41 1015.30 1015.11 1015.21 1015.41 1015.36 1015.54 1015.67 1015.97 1016.03 1016.11 1016.09 1015.83 1015.80 1015.75 1015.57 1015.50 1015.42 1015.09 1015.11
1011.61 1011.97 1012.28 1012.56 1012.89 1013.18 1013.41 1013.78 1014.13 1014.44 1014.61 1014.67 1014.73 1014.64 1014.56 1014.58 1014.57 1014.79 1015.14 1015.19 1015.29 1015.40 1015.57 1015.67 1015.58 1015.38 1015.43 1015.46 1015.53 1015.69 1015.71 1015.91 1016.06 1016.15 1016.00 1015.92 1015.83 1015.82 1015.53 1015.58 1015.40 1015.32 1015.31
1011.84 1011.97 1012.36 1012.64 1012.92 1013.12 1013.40 1013.65 1014.05 1014.36 1014.54 1014.66 1014.71 1014.66 1014.65 1014.59 1014.61 1014.76 1015.11 1015.22 1015.39 1015.61 1015.67 1015.88 1015.90 1015.69 1015.68 1015.70 1015.74 1015.79 1015.80 1015.98 1016.07 1016.18 1016.04 1015.90 1015.76 1015.66 1015.43 1015.42 1015.43 1015.39 1015.58
1012.04 1012.11 1012.43 1012.65 1012.89 1013.08 1013.41 1013.67 1013.96 1014.29 1014.47 1014.59 1014.67 1014.68 1014.61 1014.59 1014.63 1014.78 1015.11 1015.27 1015.46 1015.69 1015.82 1015.86 1015.90 1015.82 1015.87 1015.85 1015.84 1015.78 1015.79 1015.89 1016.08 1016.03 1015.94 1015.74 1015.63 1015.59 1015.45 1015.26 1015.36 1015.47 1015.47
1012.05 1012.22 1012.48 1012.74 1012.86 1013.05 1013.39 1013.66 1013.94 1014.17 1014.39 1014.55 1014.64 1014.57 1014.51 1014.53 1014.53 1014.62 1014.97 1015.29 1015.48 1015.63 1015.76 1015.83 1015.83 1015.80 1015.75 1015.83 1015.78 1015.75 1015.85 1015.75 1015.79 1015.83 1015.81 1015.66 1015.53 1015.53 1015.36 1015.08 1015.24 1015.35 1015.37
1011.89 1012.01 1012.44 1012.77 1012.87 1013.03 1013.33 1013.60 1013.88 1014.09 1014.27 1014.47 1014.58 1014.46 1014.48 1014.56 1014.62 1014.68 1014.96 1015.27 1015.42 1015.52 1015.60 1015.69 1015.68 1015.71 1015.70 1015.70 1015.61 1015.56 1015.65 1015.64 1015.69 1015.59 1015.67 1015.66 1015.50 1015.39 1015.13 1014.75 1014.83 1015.03 1015.10
1012.22 1012.00 1012.28 1012.60 1012.83 1013.03 1013.33 1013.49 1013.78 1014.02 1014.18 1014.36 1014.46 1014.55 1014.59 1014.69 1014.83 1014.93 1014.99 1015.16 1015.37 1015.48 1015.38 1015.45 1015.44 1015.43 1015.42 1015.37 1015.39 1015.37 1015.41 1015.42 1015.33 1015.30 1015.38 1015.31 1015.31 1015.18 1014.89 1014.69 1014.40 1014.55 1014.69
1012.50 1012.27 1012.26 1012.52 1012.78 1012.89 1013.17 1013.41 1013.64 1013.88 1014.08 1014.28 1014.39 1014.52 1014.59 1014.72 1014.84 1014.98 1015.05 1015.26 1015.30 1015.32 1015.30 1015.15 1015.12 1015.01 1015.10 1015.08 1015.09 1015.14 1015.17 1015.15 1014.88 1014.88 1014.94 1014.84 1014.96 1014.82 1014.57 1014.37 1014.11 1013.93 1014.05
1012.77 1012.64 1012.39 1012.44 1012.59 1012.71 1013.03 1013.26 1013.49 1013.71 1013.90 1014.13 1014.28 1014.45 1014.55 1014.60 1014.78 1014.97 1015.08 1015.22 1015.30 1015.28 1015.23 1015.15 1014.95 1014.87 1014.88 1014.87 1014.91 1015.00 1015.04 1014.66 1014.64 1014.53 1014.41 1014.44 1014.50 1014.34 1014.07 1013.79 1013.65 1013.51 1013.39
1012.63 1012.57 1012.39 1012.51 1012.44 1012.55 1012.79 1012.99 1013.20 1013.50 1013.70 1013.88 1014.07 1014.27 1014.41 1014.54 1014.64 1014.81 1014.95 1015.05 1015.10 1015.14 1015.07 1014.95 1014.79 1014.73 1014.68 1014.49 1014.45 1014.64 1014.45 1014.36 1014.24 1014.03 1013.84 1013.90 1013.84 1013.67 1013.46 1013.30 1013.15 1013.01 1012.91
1012.03 1012.24 1012.07 1012.31 1012.26 1012.35 1012.52 1012.72 1012.99 1013.35 1013.55 1013.71 1013.87 1014.14 1014.28 1014.40 1014.50 1014.64 1014.78 1014.78 1014.92 1014.92 1014.72 1014.61 1014.49 1014.36 1014.22 1014.08 1013.93 1013.89 1013.84 1013.74 1013.53 1013.35 1013.13 1013.18 1013.15 1012.98 1012.76 1012.60 1012.49 1012.40 1012.26
1011.64 1011.60 1011.65 1011.81 1011.98 1012.10 1012.32 1012.43 1012.57 1013.03 1013.27 1013.39 1013.54 1013.85 1014.10 1014.16 1014.33 1014.53 1014.56 1014.58 1014.69 1014.45 1014.36 1014.22 1014.02 1013.84 1013.77 1013.63 1013.49 1013.31 1013.23 1013.08 1012.85 1012.64 1012.28 1012.34 1012.22 1012.04 1011.86 1011.74 1011.63 1011.54 1011.43
1011.21 1011.22 1011.40 1011.48 1011.53 1011.78 1012.12 1012.06 1012.27 1012.62 1012.85 1012.96 1013.21 1013.50 1013.80 1013.97 1014.13 1014.13 1014.13 1014.15 1014.10 1014.04 1013.94 1013.72 1013.65 1013.48 1013.32 1013.13 1012.97 1012.83 1012.61 1012.40 1012.19 1012.01 1011.62 1011.51 1011.45 1011.26 1011.06 1010.81 1010.63 1010.50 1010.39
1011.06 1011.06 1011.05 1010.97 1011.06 1011.24 1011.53 1011.68 1011.91 1012.20 1012.35 1012.70 1012.91 1013.20 1013.58 1013.76 1013.81 1013.85 1013.74 1013.64 1013.60 1013.68 1013.50 1013.41 1013.24 1013.09 1012.85 1012.70 1012.45 1012.16 1011.93 1011.61 1011.32 1011.07 1010.77 1010.40 1010.48 1010.29 1010.14 1009.96 1009.76 1009.57 1009.43
1011.17 1011.09 1010.74 1010.47 1010.49 1010.71 1010.99 1011.27 1011.59 1011.83 1012.17 1012.39 1012.64 1013.05 1013.37 1013.55 1013.55 1013.52 1013.47 1013.34 1013.25 1013.24 1013.21 1013.10 1012.85 1012.71 1012.42 1012.07 1011.82 1011.46 1011.11 1010.74 1010.40 1010.10 1009.83 1009.55 1009.23 1009.26 1009.12 1008.93 1008.76 1008.54 1008.35
1011.39 1011.04 1010.46 1010.06 1010.03 1010.41 1010.75 1011.08 1011.50 1011.83 1012.06 1012.30 1012.71 1013.04 1013.24 1013.33 1013.36 1013.32 1013.24 1012.97 1012.77 1012.85 1012.80 1012.62 1012.43 1012.09 1011.73 1011.53 1011.09 1010.64 1010.38 1009.93 1009.41 1008.94 1008.63 1008.38 1008.03 1007.74 1007.54 1007.50 1007.31 1007.05 1007.00
1011.53 1011.09 1010.54 1010.23 1010.16 1010.43 1010.94 1011.26 1011.69 1011.93 1012.18 1012.37 1012.71 1012.86 1012.91 1012.97 1012.99 1013.00 1012.91 1012.62 1012.60 1012.62 1012.44 1012.37 1012.06 1011.88 1011.26 1010.87 1010.61 1010.11 1009.63 1009.12 1008.57 1008.17 1007.78 1007.46 1007.13 1006.93 1006.53 1006.23 1006.24 1006.15 1006.01
1011.80 1011.38 1010.95 1010.54 1010.38 1010.75 1011.09 1011.37 1011.78 1011.96 1012.24 1012.46 1012.59 1012.69 1012.84 1012.87 1012.87 1012.88 1012.82 1012.77 1012.58 1012.42 1012.24 1012.13 1011.91 1011.52 1011.19 1010.63 1010.15 1009.63 1009.14 1008.56 1008.05 1007.55 1007.11 1006.73 1006.34 1006.08 1005.88 1005.70 1005.40 1005.15 1005.17
1012.03 1011.74 1011.46 1011.06 1011.28 1011.26 1011.24 1011.52 1011.83 1012.22 1012.63 1012.82 1012.98 1013.02 1013.02 1013.08 1013.10 1013.09 1013.10 1012.94 1012.75 1012.59 1012.43 1012.19 1011.83 1011.36 1010.88 1010.43 1010.05 1009.19 1008.30 1007.69 1007.08 1006.61 1006.16 1005.97 1005.60 1005.22 1004.97 1004.68 1004.50 1004.18 1003.82
1012.93 1012.52 1011.99 1011.88 1012.07 1011.88 1011.69 1012.11 1012.44 1012.88 1013.45 1013.67 1013.82 1013.85 1013.84 1013.78 1013.79 1013.68 1013.66 1013.49 1013.28 1012.95 1012.65 1012.33 1011.96 1011.55 1011.05 1010.50 1010.06 1009.26 1007.61 1006.71 1006.01 1006.21 1005.88 1005.38 1004.91 1004.54 1004.27 1003.96 1003.66 1003.34 1003.06
1013.82 1013.20 1012.95 1012.72 1012.66 1012.68 1012.64 1012.73 1013.04 1013.41 1013.87 1014.08 1014.39 1014.44 1014.60 1014.48 1014.42 1014.28 1014.17 1013.99 1013.73 1013.40 1013.11 1012.78 1012.34 1011.94 1011.36 1010.74 1010.31 1009.99 1008.34 1007.09 1006.56 1006.05 1005.23 1004.71 1004.23 1003.97 1003.68 1003.30 1003.01 1002.67 1002.40
1014.57 1014.18 1013.81 1013.55 1013.39 1013.54 1013.57 1013.72 1013.97 1014.37 1014.73 1015.42 1015.39 1015.29 1015.07 1014.95 1014.85 1014.77 1014.62 1014.39 1014.07 1013.71 1013.33 1012.96 1012.56 1012.28 1011.83 1011.16 1010.62 1009.94 1009.91 1009.11 1007.55 1004.87 1004.79 1004.64 1004.21 1003.49 1003.10 1002.61 1002.34 1001.94 1001.62
1014.97 1014.81 1014.59 1014.37 1014.37 1014.50 1014.54 1014.78 1014.91 1015.29 1015.65 1015.85 1015.76 1015.54 1015.44 1015.31 1015.22 1015.17 1014.90 1014.58 1014.25 1013.94 1013.62 1013.24 1012.75 1012.39 1012.07 1011.69 1011.10 1010.47 1009.90 1009.14 1008.43 1007.33 1004.33 1004.33 1004.42 1003.80 1003.12 1002.43 1001.60 1000.99 1000.62
1015.38 1015.28 1015.19 1015.10 1015.53 1015.56 1015.42 1015.64 1015.61 1015.84 1016.13 1016.03 1016.04 1015.87 1015.82 1015.68 1015.51 1015.31 1015.00 1014.66 1014.34 1014.05 1013.71 1013.32 1012.98 1012.57 1012.18 1011.70 1011.19 1010.67 1010.12 1009.46 1008.72 1008.12 1006.88 1005.01 1004.17 1003.34 1002.65 1001.90 1001.49 1000.74 1000.14
Wind_Speed
9 6 14 15 14 13 14 11 10 8 7 6 6 4 6 3 2 3 2 3 2 3 4 6 6 4 4 4 6 5 4 3 4 4 3 5 7 6 4 5 2 3 3
5 9 13 13 13 12 13 10 10 8 7 6 5 6 3 7 4 3 3 4 1 0 3 4 6 2 2 1 1 2 3 1 1 3 4 4 6 9 3 5 5 6 6
8 11 12 12 13 11 13 13 9 8 7 6 6 4 7 7 4 4 1 2 1 2 4 5 6 7 6 5 9 4 6 2 2 3 5 4 4 6 5 6 8 6 7
10 11 11 10 12 14 13 13 11 8 7 6 6 7 6 9 8 4 0 1 5 3 3 3 9 7 5 6 1 2 4 3 3 4 5 6 6 6 8 6 8 1 4
10 11 10 9 13 13 14 12 10 8 7 7 7 7 6 6 6 7 4 2 2 3 1 3 7 5 7 7 7 4 1 2 3 4 5 6 7 7 10 8 10 7 3
9 10 11 10 12 13 13 10 9 8 8 7 7 8 8 8 8 6 5 2 2 3 4 5 7 8 6 7 9 9 5 4 3 5 5 5 8 8 11 10 10 10 10
9 9 10 11 10 13 11 10 9 8 8 7 9 10 9 9 8 6 5 4 4 4 6 6 7 8 9 9 10 10 11 11 5 6 6 6 7 10 13 12 11 12 11
11 10 9 10 9 12 12 11 10 9 9 8 9 4 1 1 5 3 7 5 5 6 7 8 8 8 9 10 12 12 10 11 5 7 7 6 9 12 13 14 12 12 11
7 9 9 9 10 10 11 11 11 10 9 9 9 8 2 1 2 2 4 5 7 7 9 10 10 10 10 10 11 12 11 9 10 7 7 6 9 14 16 16 15 14 14
6 7 8 8 9 9 10 10 10 10 8 8 8 8 7 5 3 4 4 5 9 8 10 11 11 11 11 11 11 11 10 10 11 9 8 7 12 15 17 17 19 17 16
4 6 7 8 9 9 8 7 10 11 10 9 8 5 6 6 5 4 4 6 7 9 11 12 13 12 11 10 9 10 9 7 10 8 7 11 14 17 18 20 20 20 19
7 8 7 8 10 9 7 8 8 8 7 7 6 7 5 6 5 5 5 6 8 9 10 11 12 13 10 7 6 8 6 8 8 9 8 15 17 19 21 21 22 22 22
6 7 9 9 9 10 8 6 4 5 5 5 7 6 5 5 4 4 3 4 4 5 5 7 8 7 10 9 8 8 9 9 7 7 11 17 19 21 23 23 24 24 24
8 10 10 11 10 10 7 6 6 6 6 5 6 7 5 4 5 5 4 5 5 5 7 7 6 9 11 11 12 12 12 10 7 7 10 18 20 23 24 25 25 26 27
8 9 9 10 10 10 10 7 7 7 6 7 6 7 6 6 6 5 6 5 6 6 7 7 7 8 10 11 11 12 12 13 13 8 8 15 21 23 25 26 27 28 28
6 8 9 10 11 11 11 10 8 7 8 6 5 6 7 6 6 6 6 7 7 6 7 7 8 9 9 9 12 12 13 13 14 14 10 11 19 24 25 26 27 29 29
4 6 8 9 11 13 12 10 8 7 6 6 5 6 6 6 7 8 7 7 7 6 9 8 9 8 9 9 12 12 12 14 13 15 13 12 12 19 26 27 28 30 31
4 7 8 5 6 9 9 7 5 4 5 4 4 4 6 7 7 7 7 7 7 6 6 7 8 9 9 8 9 10 9 12 15 15 13 12 12 11 15 27 29 30 31
5 7 8 7 1 3 4 2 2 2 2 2 2 3 5 7 7 6 6 7 8 7 7 7 8 8 9 9 8 9 11 11 13 12 16 16 16 14 11 17 23 26 28
8 9 10 9 10 7 5 5 3 3 3 2 3 3 5 4 5 5 5 7 7 6 7 6 8 8 9 10 9 10 12 12 12 12 14 13 14 16 15 16 13 12 23
11 13 13 13 11 5 5 4 6 8 8 9 9 13 13 11 11 9 6 8 7 6 8 8 7 9 8 9 6 6 7 11 14 12 11 11 13 15 15 14 11 10 11
10 10 13 14 12 9 6 4 5 7 9 8 8 11 12 13 13 11 10 9 10 8 10 10 10 7 7 9 7 9 6 8 10 6 10 11 15 12 13 15 16 16 14
10 11 12 13 13 12 10 7 7 6 6 7 8 8 10 12 12 12 11 9 9 7 7 8 9 9 7 8 10 7 7 7 13 9 12 13 14 10 12 14 16 16 16
8 8 12 13 14 13 12 12 14 9 8 6 6 7 8 11 11 12 11 10 9 7 9 9 9 9 9 9 9 6 11 12 9 13 7 11 13 13 14 12 13 14 15
6 8 10 13 14 14 14 11 9 10 7 5 5 8 9 9 10 12 11 11 11 8 10 11 12 11 8 8 8 9 10 9 10 10 16 11 12 12 12 12 14 13 14
6 9 10 14 13 12 12 12 13 11 9 7 8 8 7 6 7 11 11 10 10 10 10 10 10 11 10 10 9 9 9 10 10 10 13 16 17 13 12 12 13 12 13
Wind_Direction
217 192 188 197 163 164 154 163 162 157 152 144 140 140 141 85 22 330 286 286 333 38 332 319 301 312 99 89 92 98 94 89 54 26 348 330 325 349 64 357 179 210 223
167 178 191 180 170 179 165 164 163 166 170 175 181 191 160 155 184 231 275 282 334 354 350 318 305 198 147 287 235 126 91 93 78 14 352 311 325 331 323 296 228 224 220
169 170 185 187 174 170 163 158 170 178 183 192 205 194 207 176 165 129 111 47 151 54 34 316 324 300 320 310 283 183 137 220 278 313 310 277 279 307 268 279 305 214 199
164 169 179 181 166 171 171 166 169 181 192 199 216 227 238 176 157 193 230 41 337 313 313 328 306 302 298 278 326 190 128 188 248 295 279 266 256 267 245 254 278 218 175
165 169 176 179 178 188 168 172 168 189 202 216 228 243 251 192 163 144 129 136 305 311 316 289 266 290 314 295 310 244 118 234 240 277 286 261 238 249 260 245 250 239 228
167 172 177 182 190 191 174 167 176 198 206 224 233 244 259 206 177 143 149 164 230 276 271 272 281 273 300 294 285 288 261 254 222 271 285 260 238 251 260 250 247 250 245
167 173 181 188 202 179 176 179 187 200 216 225 228 238 246 225 207 179 176 214 240 247 265 265 274 280 276 277 287 283 295 294 244 272 275 263 250 253 260 254 243 250 250
168 169 183 196 207 179 189 192 198 210 218 226 238 269 213 201 294 309 164 211 246 261 261 269 271 276 280 283 281 277 277 284 251 268 271 279 264 258 256 258 240 247 249
183 171 184 197 206 191 193 194 201 212 222 228 238 259 274 346 18 274 215 260 259 276 282 260 256 257 265 271 278 282 287 275 275 275 271 267 271 267 261 267 257 245 250
198 189 191 198 206 208 206 198 200 211 218 231 237 246 233 236 228 261 301 315 278 283 287 302 277 268 270 278 282 291 288 281 272 270 265 261 266 273 264 260 268 255 248
235 220 203 204 209 208 211 213 211 214 218 227 238 260 265 231 238 252 265 274 281 284 288 291 298 298 291 278 286 288 294 280 277 269 267 261 264 266 265 262 258 265 253
236 232 215 220 216 211 211 213 220 227 232 232 235 247 249 238 241 247 254 269 279 281 285 281 285 290 294 282 278 275 275 276 273 268 264 264 265 264 262 261 262 260 263
233 236 215 219 223 215 214 214 216 225 229 231 235 239 245 245 246 251 258 265 269 266 273 274 272 267 269 268 268 268 271 271 261 261 259 255 260 264 263 261 259 259 260
222 240 230 219 219 219 217 214 217 221 227 231 233 238 239 245 252 255 259 267 264 265 268 266 268 270 271 270 269 271 271 269 265 261 259 250 251 255 257 258 257 257 256
243 249 243 227 221 218 217 217 219 225 228 234 236 238 236 244 251 259 260 259 261 265 266 272 274 277 277 276 271 270 273 271 269 264 265 249 250 254 256 255 253 253 253
293 284 266 234 224 214 221 218 221 225 232 230 239 246 241 249 257 260 267 264 267 270 275 277 278 282 282 281 280 273 273 273 269 267 265 265 250 251 254 256 256 254 254
329 316 294 259 221 214 220 220 224 229 230 238 242 250 256 257 263 269 278 282 283 286 287 283 283 278 278 277 275 278 276 273 269 269 264 261 265 248 251 255 256 255 254
341 341 331 303 222 216 219 217 227 238 247 265 281 286 280 278 275 277 279 281 290 287 283 281 285 284 280 274 276 279 272 271 268 264 262 256 251 252 247 247 249 250 251
19 8 16 18 39 188 205 202 226 255 278 311 308 290 281 276 277 276 287 298 305 294 291 290 290 281 293 291 283 278 278 273 273 270 266 263 259 255 258 255 246 249 251
39 39 40 42 55 79 101 103 106 100 56 37 12 355 343 331 325 314 316 314 316 313 312 310 301 299 286 292 292 290 291 286 279 270 269 268 265 261 258 260 262 253 247
45 44 39 49 43 62 70 78 61 64 68 60 57 55 53 49 48 40 30 20 9 357 348 342 327 319 316 311 288 278 270 273 272 269 267 269 269 265 262 259 257 256 256
56 56 56 54 51 50 59 70 81 84 71 72 60 54 49 48 43 41 33 26 20 10 10 4 0 340 320 326 309 300 302 305 273 292 284 273 275 273 270 263 262 260 259
49 49 58 61 58 54 62 81 82 76 67 54 41 46 40 43 39 34 30 23 17 14 5 356 357 354 331 323 335 312 311 307 319 291 294 285 281 284 278 276 271 270 266
48 54 65 63 62 56 59 69 71 71 71 44 42 39 38 34 34 25 19 15 11 4 2 354 352 346 342 333 330 328 310 305 310 305 290 311 291 299 302 292 281 275 270
70 65 69 70 65 64 65 68 75 74 72 59 44 37 31 27 27 20 13 9 7 2 357 352 347 344 338 327 321 317 310 312 301 308 306 317 296 295 294 289 282 287 284
77 74 76 79 69 67 72 71 74 72 61 49 34 27 19 14 15 15 9 7 3 357 352 346 342 336 335 330 325 323 320 316 312 312 302 308 303 300 288 293 292 286 285